Location: Brantley
(31.5822°N, 86.2569°W)
Time: 00:51:26
(UTC+00:00)

Vanguard 3 - Pass Details

Date: 16 February 2026
Orbit: 507 x 3205 km, 33.4° (Epoch: 8 March)

Event Time Altitude Azimuth Distance (km) Brightness Sun altitude
Rises 22:27:43 0° 250° (WSW) 5,471 13.5 12.3°
Reaches altitude 10° 22:32:02 10° 250° (WSW) 4,018 14.7 11.5°
Maximum altitude 22:41:43 80° 165° (SSE) 1,096 8.0 9.6°
Drops below altitude 10° 22:47:08 10° 79° (ENE) 2,328 8.9 8.5°
Sets 22:49:03 0° 78° (ENE) 3,064 9.4 8.1°
